| time (UTC) | temp F | wind direction | speed knots | gust knots | rain 1hr in | rain 24hr in | rain mn in | humidity % | barometer mb |
| 20260507133050 | 59 | 5 | 1.7 | 9.6 | 0.00 | 0.01 | 0.00 | 87 | 1017.5 |
| 20260507132537 | 59 | 349 | 0.9 | 11.3 | 0.00 | 0.01 | 0.00 | 87 | 1017.6 |
| 20260507132036 | 59 | 0 | 1.7 | 11.3 | 0.00 | 0.01 | 0.00 | 87 | 1017.6 |
| 20260507131545 | 59 | 73 | 0.9 | 13.0 | 0.00 | 0.01 | 0.00 | 87 | 1017.6 |
| 20260507131038 | 59 | 5 | 2.6 | 13.0 | 0.00 | 0.01 | 0.00 | 87 | 1017.5 |
| 20260507130541 | 59 | 0 | 3.5 | 12.2 | 0.00 | 0.01 | 0.00 | 87 | 1017.6 |
| 20260507130054 | 59 | 21 | 2.6 | 11.3 | 0.00 | 0.01 | 0.00 | 87 | 1017.5 |
| 20260507125537 | 59 | 0 | 1.7 | 11.3 | 0.00 | 0.01 | 0.00 | 87 | 1017.6 |
| 20260507125037 | 59 | 0 | 2.6 | 11.3 | 0.00 | 0.01 | 0.00 | 87 | 1017.3 |
| 20260507124547 | 59 | 33 | 2.6 | 10.4 | 0.00 | 0.01 | 0.00 | 87 | 1017.2 |
| 20260507124037 | 59 | 0 | 3.5 | 10.4 | 0.00 | 0.01 | 0.00 | 87 | 1017.1 |
| 20260507123537 | 59 | 352 | 0.9 | 13.0 | 0.00 | 0.01 | 0.00 | 87 | 1017.2 |
| 20260507123044 | 59 | 0 | 2.6 | 13.0 | 0.00 | 0.01 | 0.00 | 86 | 1017.1 |
| 20260507122536 | 60 | 0 | 3.5 | 11.3 | 0.00 | 0.01 | 0.00 | 87 | 1017.3 |
| 20260507122037 | 60 | 0 | 0.9 | 10.4 | 0.00 | 0.01 | 0.00 | 86 | 1017.2 |
| 20260507121543 | 60 | 0 | 1.7 | 9.6 | 0.00 | 0.01 | 0.00 | 86 | 1017.0 |
| 20260507121037 | 60 | 0 | 2.6 | 10.4 | 0.00 | 0.01 | 0.00 | 87 | 1016.8 |
| 20260507120537 | 60 | 29 | 0.9 | 10.4 | 0.00 | 0.01 | 0.00 | 87 | 1016.7 |
| 20260507120052 | 60 | 0 | 0.0 | 10.4 | 0.00 | 0.01 | 0.00 | 87 | 1016.9 |
| 20260507115537 | 60 | 0 | 0.9 | 11.3 | 0.00 | 0.01 | 0.00 | 87 | 1016.4 |
| 20260507115041 | 60 | 30 | 0.0 | 11.3 | 0.00 | 0.01 | 0.00 | 87 | 1016.6 |
| 20260507114604 | 60 | 0 | 0.9 | 10.4 | 0.00 | 0.01 | 0.00 | 87 | 1016.8 |
| 20260507114037 | 60 | 0 | 2.6 | 10.4 | 0.00 | 0.01 | 0.00 | 87 | 1016.5 |
| 20260507113537 | 60 | 0 | 3.5 | 10.4 | 0.00 | 0.01 | 0.00 | 87 | 1016.1 |
| 20260507113105 | 61 | 0 | 0.9 | 8.7 | 0.00 | 0.01 | 0.00 | 87 | 1016.1 |
| 20260507112538 | 61 | 0 | 0.0 | 10.4 | 0.00 | 0.01 | 0.00 | 87 | 1016.0 |
| 20260507112040 | 61 | 44 | 0.0 | 10.4 | 0.00 | 0.01 | 0.00 | 87 | 1015.7 |
| 20260507111550 | 61 | 49 | 0.0 | 11.3 | 0.00 | 0.01 | 0.00 | 87 | 1015.7 |
| 20260507111037 | 61 | 0 | 3.5 | 11.3 | 0.00 | 0.01 | 0.00 | 87 | 1015.8 |
| 20260507110537 | 61 | 0 | 0.0 | 8.7 | 0.00 | 0.01 | 0.00 | 87 | 1015.8 |
| 20260507110048 | 61 | 0 | 0.9 | 9.6 | 0.00 | 0.01 | 0.00 | 88 | 1015.8 |
| 20260507105537 | 61 | 0 | 0.0 | 9.6 | 0.00 | 0.01 | 0.00 | 88 | 1016.3 |
| 20260507105037 | 61 | 69 | 0.0 | 10.4 | 0.00 | 0.01 | 0.00 | 88 | 1015.5 |
| 20260507104546 | 61 | 13 | 1.7 | 12.2 | 0.00 | 0.01 | 0.00 | 89 | 1015.8 |
| 20260507104037 | 61 | 5 | 1.7 | 12.2 | 0.00 | 0.01 | 0.00 | 89 | 1015.1 |
| 20260507103536 | 61 | 47 | 0.9 | 12.2 | 0.00 | 0.01 | 0.00 | 89 | 1015.4 |
| 20260507103053 | 61 | 0 | 1.7 | 12.2 | 0.00 | 0.01 | 0.00 | 89 | 1015.4 |
| 20260507102539 | 61 | 0 | 2.6 | 12.2 | 0.00 | 0.01 | 0.00 | 89 | 1015.2 |
| 20260507102038 | 61 | 0 | 0.9 | 7.8 | 0.00 | 0.01 | 0.00 | 89 | 1015.3 |
| 20260507101552 | 62 | 0 | 0.9 | 7.0 | 0.00 | 0.01 | 0.00 | 89 | 1015.7 |
| 20260507101036 | 62 | 0 | 0.0 | 7.8 | 0.00 | 0.01 | 0.00 | 89 | 1015.5 |
| 20260507100538 | 62 | 0 | 0.0 | 7.8 | 0.00 | 0.01 | 0.00 | 89 | 1015.4 |
| 20260507100047 | 62 | 345 | 0.9 | 7.8 | 0.00 | 0.01 | 0.00 | 89 | 1015.0 |
| 20260507095537 | 62 | 360 | 0.0 | 6.1 | 0.00 | 0.01 | 0.00 | 89 | 1015.3 |
| 20260507095038 | 62 | 0 | 0.0 | 6.1 | 0.00 | 0.01 | 0.00 | 89 | 1014.6 |
| 20260507094548 | 62 | 0 | 0.0 | 0.0 | 0.00 | 0.01 | 0.00 | 89 | 1014.8 |
| 20260507094037 | 62 | 0 | 0.0 | 0.0 | 0.00 | 0.01 | 0.00 | 89 | 1015.0 |
| 20260507093537 | 62 | 0 | 0.0 | 0.0 | 0.00 | 0.01 | 0.00 | 89 | 1015.2 |
| 20260507093051 | 62 | 0 | 0.0 | 7.8 | 0.00 | 0.01 | 0.00 | 89 | 1014.9 |
| 20260507092537 | 62 | 0 | 0.0 | 7.8 | 0.00 | 0.01 | 0.00 | 89 | 1014.8 |
| 20260507092037 | 61 | 9 | 0.0 | 7.0 | 0.00 | 0.01 | 0.00 | 90 | 1014.4 |
| 20260507091615 | 61 | 11 | 0.0 | 6.1 | 0.00 | 0.01 | 0.00 | 89 | 1014.4 |
| 20260507091037 | 61 | 0 | 1.7 | 6.1 | 0.00 | 0.01 | 0.00 | 89 | 1013.9 |
| 20260507090538 | 61 | 0 | 0.9 | 10.4 | 0.00 | 0.01 | 0.00 | 89 | 1013.9 |
| 20260507090049 | 61 | 0 | 0.9 | 10.4 | 0.00 | 0.01 | 0.00 | 89 | 1014.0 |
| 20260507085537 | 61 | 0 | 2.6 | 10.4 | 0.00 | 0.01 | 0.00 | 89 | 1014.0 |
| 20260507085037 | 61 | 12 | 1.7 | 8.7 | 0.00 | 0.01 | 0.00 | 89 | 1014.0 |
| 20260507084555 | 61 | 34 | 1.7 | 10.4 | 0.00 | 0.01 | 0.00 | 89 | 1013.5 |
| 20260507084036 | 61 | 0 | 1.7 | 12.2 | 0.00 | 0.01 | 0.00 | 89 | 1013.7 |
| 20260507083537 | 62 | 67 | 1.7 | 12.2 | 0.00 | 0.01 | 0.00 | 88 | 1013.7 |
| 20260507083047 | 62 | 36 | 2.6 | 8.7 | 0.00 | 0.01 | 0.00 | 88 | 1014.0 |
| 20260507082537 | 62 | 0 | 2.6 | 7.8 | 0.00 | 0.01 | 0.00 | 88 | 1014.1 |
| 20260507082037 | 62 | 28 | 0.0 | 5.2 | 0.00 | 0.01 | 0.00 | 88 | 1014.7 |
| 20260507081556 | 62 | 0 | 0.0 | 3.5 | 0.00 | 0.01 | 0.00 | 88 | 1015.1 |
| 20260507081037 | 62 | 0 | 0.0 | 3.5 | 0.00 | 0.01 | 0.00 | 88 | 1015.4 |
| 20260507080537 | 62 | 0 | 0.0 | 7.8 | 0.00 | 0.01 | 0.00 | 88 | 1014.8 |
| 20260507080052 | 62 | 0 | 0.9 | 7.8 | 0.00 | 0.01 | 0.00 | 88 | 1014.5 |
| 20260507075537 | 62 | 0 | 0.0 | 8.7 | 0.00 | 0.01 | 0.00 | 88 | 1014.2 |
| 20260507075039 | 62 | 331 | 0.9 | 8.7 | 0.00 | 0.01 | 0.00 | 88 | 1014.3 |
| 20260507074550 | 62 | 0 | 0.0 | 10.4 | 0.00 | 0.01 | 0.00 | 88 | 1013.8 |
| 20260507074039 | 62 | 49 | 0.9 | 10.4 | 0.00 | 0.01 | 0.00 | 88 | 1014.3 |
| 20260507073537 | 62 | 0 | 2.6 | 10.4 | 0.00 | 0.01 | 0.00 | 88 | 1014.0 |
| 20260507073048 | 62 | 0 | 2.6 | 13.0 | 0.00 | 0.01 | 0.00 | 87 | 1014.4 |
| 20260507072538 | 62 | 0 | 2.6 | 13.0 | 0.00 | 0.01 | 0.00 | 87 | 1014.4 |
| 20260507072038 | 62 | 32 | 3.5 | 12.2 | 0.00 | 0.01 | 0.00 | 87 | 1014.3 |
| 20260507071546 | 62 | 33 | 3.5 | 12.2 | 0.00 | 0.01 | 0.00 | 87 | 1014.2 |
| 20260507071037 | 62 | 20 | 0.9 | 7.8 | 0.00 | 0.01 | 0.00 | 87 | 1014.7 |
| 20260507070538 | 62 | 0 | 1.7 | 9.6 | 0.00 | 0.01 | 0.00 | 87 | 1014.7 |
| 20260507070049 | 62 | 28 | 1.7 | 9.6 | 0.00 | 0.01 | 0.00 | 87 | 1014.9 |
| 20260507065540 | 62 | 0 | 3.5 | 10.4 | 0.00 | 0.01 | 0.00 | 87 | 1014.7 |
| 20260507065037 | 62 | 5 | 1.7 | 10.4 | 0.00 | 0.01 | 0.00 | 87 | 1013.9 |
| 20260507064548 | 62 | 0 | 4.3 | 10.4 | 0.00 | 0.01 | 0.00 | 87 | 1014.8 |
| 20260507064040 | 62 | 39 | 3.5 | 9.6 | 0.00 | 0.01 | 0.00 | 87 | 1014.5 |
| 20260507063537 | 62 | 29 | 1.7 | 9.6 | 0.00 | 0.01 | 0.00 | 86 | 1015.1 |
| 20260507063045 | 62 | 69 | 4.3 | 9.6 | 0.00 | 0.01 | 0.00 | 86 | 1015.0 |
| 20260507062537 | 62 | 0 | 0.9 | 7.8 | 0.00 | 0.01 | 0.00 | 86 | 1014.9 |
| 20260507062037 | 62 | 0 | 0.9 | 7.0 | 0.00 | 0.01 | 0.00 | 86 | 1015.3 |
| 20260507061546 | 62 | 0 | 0.0 | 7.8 | 0.00 | 0.01 | 0.00 | 86 | 1015.2 |
| 20260507061037 | 62 | 11 | 0.9 | 10.4 | 0.00 | 0.01 | 0.00 | 86 | 1015.5 |
| 20260507060537 | 62 | 347 | 1.7 | 13.9 | 0.00 | 0.01 | 0.00 | 86 | 1015.2 |
| 20260507060057 | 62 | 58 | 2.6 | 13.9 | 0.00 | 0.01 | 0.00 | 86 | 1014.6 |
| 20260507055538 | 62 | 32 | 3.5 | 10.4 | 0.00 | 0.01 | 0.00 | 86 | 1014.6 |
| 20260507055038 | 62 | 52 | 1.7 | 8.7 | 0.00 | 0.01 | 0.00 | 86 | 1014.2 |
| 20260507054547 | 62 | 31 | 1.7 | 11.3 | 0.00 | 0.01 | 0.00 | 86 | 1014.5 |
| 20260507054040 | 62 | 5 | 0.0 | 11.3 | 0.00 | 0.01 | 0.00 | 86 | 1014.7 |
| 20260507053538 | 62 | 18 | 2.6 | 11.3 | 0.00 | 0.01 | 0.00 | 86 | 1015.0 |
| 20260507053046 | 62 | 0 | 0.9 | 10.4 | 0.00 | 0.01 | 0.00 | 86 | 1015.1 |
| 20260507052539 | 62 | 360 | 1.7 | 12.2 | 0.00 | 0.01 | 0.00 | 86 | 1014.6 |
| 20260507052037 | 62 | 352 | 1.7 | 12.2 | 0.00 | 0.01 | 0.00 | 86 | 1014.8 |
| 20260507051548 | 62 | 5 | 0.9 | 10.4 | 0.00 | 0.01 | 0.00 | 85 | 1014.6 |
| 20260507051036 | 62 | 360 | 2.6 | 10.4 | 0.00 | 0.01 | 0.00 | 85 | 1014.9 |
| 20260507050536 | 62 | 0 | 0.9 | 10.4 | 0.00 | 0.01 | 0.00 | 85 | 1014.6 |
| 20260507050049 | 63 | 0 | 1.7 | 10.4 | 0.00 | 0.01 | 0.00 | 85 | 1014.6 |
| 20260507045540 | 63 | 31 | 1.7 | 10.4 | 0.00 | 0.01 | 0.01 | 85 | 1014.7 |
| 20260507045037 | 63 | 30 | 1.7 | 8.7 | 0.00 | 0.01 | 0.01 | 85 | 1014.8 |
| 20260507044559 | 63 | 0 | 0.9 | 10.4 | 0.00 | 0.01 | 0.01 | 84 | 1014.9 |
| 20260507044039 | 63 | 11 | 2.6 | 12.2 | 0.00 | 0.01 | 0.01 | 85 | 1014.6 |
| 20260507043537 | 63 | 0 | 3.5 | 12.2 | 0.00 | 0.01 | 0.01 | 84 | 1014.9 |
| 20260507043100 | 63 | 351 | 1.7 | 9.6 | 0.00 | 0.01 | 0.01 | 84 | 1014.9 |
| 20260507042538 | 63 | 0 | 0.0 | 7.0 | 0.00 | 0.01 | 0.01 | 84 | 1014.7 |
| 20260507042041 | 63 | 32 | 0.9 | 7.8 | 0.00 | 0.01 | 0.01 | 84 | 1014.7 |
| 20260507041555 | 63 | 0 | 0.0 | 10.4 | 0.00 | 0.01 | 0.01 | 84 | 1015.1 |
| 20260507041037 | 63 | 0 | 1.7 | 12.2 | 0.00 | 0.01 | 0.01 | 84 | 1014.9 |
| 20260507040537 | 63 | 37 | 2.6 | 12.2 | 0.00 | 0.01 | 0.01 | 84 | 1014.5 |
| 20260507040052 | 63 | 0 | 0.9 | 10.4 | 0.00 | 0.01 | 0.01 | 84 | 1014.7 |
| 20260507035538 | 63 | 0 | 1.7 | 11.3 | 0.00 | 0.01 | 0.01 | 84 | 1014.5 |
| 20260507035038 | 63 | 0 | 1.7 | 11.3 | 0.00 | 0.01 | 0.01 | 84 | 1014.7 |
| 20260507034546 | 63 | 0 | 0.0 | 9.6 | 0.00 | 0.01 | 0.01 | 84 | 1014.5 |
| 20260507034038 | 63 | 0 | 0.9 | 9.6 | 0.00 | 0.01 | 0.01 | 84 | 1014.4 |
| 20260507033539 | 63 | 0 | 0.0 | 8.7 | 0.00 | 0.01 | 0.01 | 84 | 1014.5 |
| 20260507033047 | 63 | 0 | 0.9 | 8.7 | 0.00 | 0.01 | 0.01 | 84 | 1014.6 |
| 20260507032538 | 64 | 0 | 0.0 | 7.8 | 0.00 | 0.01 | 0.01 | 84 | 1014.4 |
| 20260507032037 | 64 | 0 | 0.0 | 7.0 | 0.00 | 0.01 | 0.01 | 84 | 1014.4 |
| 20260507031550 | 63 | 0 | 0.0 | 6.1 | 0.00 | 0.01 | 0.01 | 83 | 1014.3 |
| 20260507031037 | 64 | 321 | 0.0 | 8.7 | 0.00 | 0.01 | 0.01 | 84 | 1014.4 |
| 20260507030539 | 64 | 0 | 0.9 | 8.7 | 0.00 | 0.01 | 0.01 | 84 | 1014.4 |
| 20260507030050 | 64 | 0 | 0.0 | 8.7 | 0.00 | 0.01 | 0.01 | 84 | 1014.3 |
| 20260507025537 | 64 | 360 | 0.0 | 9.6 | 0.00 | 0.01 | 0.01 | 84 | 1014.2 |
| 20260507025040 | 64 | 0 | 0.0 | 9.6 | 0.00 | 0.01 | 0.01 | 84 | 1014.1 |
| 20260507024552 | 64 | 21 | 1.7 | 9.6 | 0.00 | 0.01 | 0.01 | 84 | 1013.6 |
| 20260507024038 | 64 | 0 | 0.9 | 10.4 | 0.00 | 0.01 | 0.01 | 84 | 1013.5 |
| 20260507023537 | 64 | 0 | 0.9 | 10.4 | 0.00 | 0.01 | 0.01 | 84 | 1013.4 |
| 20260507023057 | 64 | 0 | 1.7 | 10.4 | 0.00 | 0.01 | 0.01 | 84 | 1013.4 |
| 20260507022537 | 64 | 0 | 0.9 | 10.4 | 0.00 | 0.01 | 0.01 | 84 | 1013.5 |
| 20260507022038 | 64 | 5 | 0.0 | 8.7 | 0.00 | 0.01 | 0.01 | 84 | 1013.3 |
| 20260507021542 | 64 | 342 | 0.9 | 8.7 | 0.00 | 0.01 | 0.01 | 84 | 1013.3 |
| 20260507021038 | 64 | 0 | 0.0 | 7.0 | 0.00 | 0.01 | 0.01 | 83 | 1013.2 |
| 20260507020538 | 64 | 0 | 0.0 | 7.8 | 0.00 | 0.01 | 0.01 | 84 | 1013.1 |
| 20260507020053 | 64 | 352 | 0.9 | 7.8 | 0.00 | 0.01 | 0.01 | 83 | 1013.0 |
| 20260507015537 | 64 | 0 | 0.0 | 8.7 | 0.00 | 0.01 | 0.01 | 83 | 1013.1 |
| 20260507015037 | 65 | 0 | 0.9 | 11.3 | 0.00 | 0.01 | 0.01 | 83 | 1013.0 |
| 20260507014556 | 65 | 0 | 1.7 | 11.3 | 0.00 | 0.01 | 0.01 | 83 | 1012.7 |
| 20260507014037 | 65 | 0 | 1.7 | 11.3 | 0.00 | 0.01 | 0.01 | 83 | 1012.7 |
| 20260507013538 | 65 | 347 | 0.9 | 7.0 | 0.00 | 0.01 | 0.01 | 83 | 1012.8 |
| 20260507013046 | 65 | 0 | 0.0 | 7.0 | 0.00 | 0.01 | 0.01 | 83 | 1012.5 |
| 20260507012542 | 65 | 0 | 0.0 | 7.0 | 0.00 | 0.01 | 0.01 | 82 | 1012.5 |
| 20260507012038 | 65 | 0 | 0.0 | 7.0 | 0.00 | 0.01 | 0.01 | 82 | 1012.4 |
| 20260507011547 | 65 | 0 | 0.0 | 7.0 | 0.00 | 0.01 | 0.01 | 82 | 1012.2 |
| 20260507011038 | 66 | 0 | 0.9 | 7.0 | 0.00 | 0.01 | 0.01 | 82 | 1012.0 |
| 20260507010537 | 66 | 0 | 0.0 | 7.0 | 0.00 | 0.01 | 0.01 | 81 | 1012.0 |
| 20260507010046 | 66 | 352 | 0.0 | 6.1 | 0.00 | 0.01 | 0.01 | 82 | 1012.1 |
| 20260507005537 | 66 | 0 | 0.0 | 6.1 | 0.00 | 0.01 | 0.01 | 82 | 1011.8 |
| 20260507005037 | 66 | 0 | 0.0 | 6.1 | 0.00 | 0.01 | 0.01 | 81 | 1011.6 |
| 20260507004545 | 67 | 343 | 0.0 | 4.3 | 0.00 | 0.01 | 0.01 | 81 | 1011.7 |
| 20260507004037 | 67 | 0 | 0.0 | 8.7 | 0.00 | 0.01 | 0.01 | 81 | 1011.5 |
| 20260507003538 | 67 | 0 | 0.0 | 8.7 | 0.00 | 0.01 | 0.01 | 81 | 1011.4 |
| 20260507003047 | 67 | 0 | 0.0 | 7.8 | 0.00 | 0.01 | 0.01 | 81 | 1011.3 |
| 20260507002540 | 67 | 0 | 0.9 | 8.7 | 0.00 | 0.01 | 0.01 | 80 | 1011.4 |
| 20260507002037 | 68 | 0 | 0.0 | 8.7 | 0.00 | 0.01 | 0.01 | 80 | 1011.6 |
| 20260507001608 | 68 | 342 | 0.0 | 11.3 | 0.00 | 0.01 | 0.01 | 80 | 1011.5 |
| 20260507001037 | 68 | 0 | 1.7 | 11.3 | 0.00 | 0.01 | 0.01 | 80 | 1011.4 |
| 20260507000541 | 68 | 0 | 0.0 | 7.8 | 0.00 | 0.01 | 0.01 | 79 | 1011.4 |
| 20260507000045 | 69 | 0 | 0.0 | 8.7 | 0.00 | 0.01 | 0.01 | 79 | 1011.3 |
| 20260506235540 | 69 | 0 | 0.0 | 10.4 | 0.00 | 0.01 | 0.01 | 79 | 1011.2 |
| 20260506235037 | 69 | 5 | 0.9 | 10.4 | 0.00 | 0.01 | 0.01 | 79 | 1011.0 |
| 20260506234551 | 70 | 18 | 0.0 | 7.0 | 0.00 | 0.01 | 0.01 | 78 | 1011.0 |
| 20260506234037 | 70 | 0 | 0.0 | 8.7 | 0.00 | 0.01 | 0.01 | 79 | 1010.9 |
| 20260506233540 | 70 | 0 | 0.9 | 11.3 | 0.00 | 0.01 | 0.01 | 78 | 1011.0 |
| 20260506233046 | 70 | 0 | 1.7 | 11.3 | 0.00 | 0.01 | 0.01 | 78 | 1010.9 |
| 20260506232539 | 71 | 0 | 0.9 | 11.3 | 0.00 | 0.01 | 0.01 | 78 | 1010.8 |
| 20260506232037 | 71 | 0 | 2.6 | 9.6 | 0.00 | 0.01 | 0.01 | 77 | 1010.9 |
| 20260506231554 | 71 | 24 | 0.9 | 7.0 | 0.00 | 0.01 | 0.01 | 77 | 1010.8 |
| 20260506231037 | 72 | 0 | 0.0 | 10.4 | 0.00 | 0.01 | 0.01 | 77 | 1010.7 |
| 20260506230537 | 72 | 0 | 0.0 | 10.4 | 0.00 | 0.01 | 0.01 | 78 | 1010.7 |
| 20260506230056 | 72 | 0 | 0.0 | 11.3 | 0.00 | 0.01 | 0.01 | 78 | 1010.7 |
| 20260506225537 | 72 | 34 | 0.9 | 11.3 | 0.00 | 0.01 | 0.01 | 78 | 1010.7 |
| 20260506225037 | 72 | 352 | 0.9 | 9.6 | 0.00 | 0.01 | 0.01 | 77 | 1010.5 |
| 20260506224553 | 73 | 320 | 0.0 | 11.3 | 0.00 | 0.01 | 0.01 | 78 | 1010.6 |
| 20260506224037 | 73 | 0 | 1.7 | 11.3 | 0.00 | 0.01 | 0.01 | 76 | 1010.5 |
| 20260506223539 | 74 | 312 | 0.9 | 10.4 | 0.00 | 0.01 | 0.01 | 76 | 1010.6 |
| 20260506223050 | 74 | 0 | 0.0 | 10.4 | 0.00 | 0.01 | 0.01 | 77 | 1010.4 |
| 20260506222538 | 74 | 0 | 0.9 | 7.8 | 0.00 | 0.01 | 0.01 | 76 | 1010.6 |
| 20260506222037 | 74 | 0 | 0.0 | 8.7 | 0.00 | 0.01 | 0.01 | 77 | 1010.6 |
| 20260506221604 | 74 | 5 | 0.0 | 8.7 | 0.00 | 0.01 | 0.01 | 77 | 1010.6 |
| 20260506221037 | 74 | 342 | 0.0 | 8.7 | 0.00 | 0.01 | 0.01 | 77 | 1010.3 |
| 20260506220538 | 74 | 324 | 0.0 | 10.4 | 0.00 | 0.01 | 0.01 | 76 | 1010.3 |
| 20260506220054 | 74 | 0 | 0.0 | 12.2 | 0.00 | 0.01 | 0.01 | 77 | 1010.4 |
| 20260506215539 | 74 | 0 | 0.9 | 12.2 | 0.00 | 0.01 | 0.01 | 79 | 1010.2 |
| 20260506215037 | 74 | 352 | 0.9 | 10.4 | 0.00 | 0.01 | 0.01 | 78 | 1010.2 |
| 20260506214547 | 74 | 0 | 0.9 | 9.6 | 0.00 | 0.01 | 0.01 | 80 | 1010.1 |
| 20260506214038 | 73 | 0 | 0.0 | 9.6 | 0.00 | 0.01 | 0.01 | 79 | 1010.0 |
| 20260506213539 | 73 | 0 | 0.0 | 9.6 | 0.00 | 0.01 | 0.01 | 80 | 1010.2 |
| 20260506213046 | 73 | 0 | 1.7 | 11.3 | 0.00 | 0.01 | 0.01 | 78 | 1010.2 |
| 20260506212538 | 74 | 348 | 0.9 | 13.9 | 0.00 | 0.01 | 0.01 | 78 | 1010.1 |
| 20260506212039 | 74 | 0 | 0.0 | 13.9 | 0.00 | 0.01 | 0.01 | 79 | 1010.1 |
| 20260506211548 | 75 | 302 | 0.9 | 13.9 | 0.00 | 0.01 | 0.01 | 79 | 1010.3 |
| 20260506211039 | 76 | 338 | 0.9 | 12.2 | 0.00 | 0.01 | 0.01 | 79 | 1010.3 |
| 20260506210539 | 76 | 0 | 1.7 | 13.0 | 0.00 | 0.01 | 0.01 | 78 | 1010.2 |
| 20260506210057 | 78 | 327 | 2.6 | 13.0 | 0.00 | 0.01 | 0.01 | 78 | 1010.0 |
| 20260506205541 | 79 | 303 | 0.0 | 7.8 | 0.00 | 0.01 | 0.01 | 79 | 1009.9 |
| 20260506205039 | 79 | 0 | 0.9 | 8.7 | 0.00 | 0.01 | 0.01 | 79 | 1009.9 |
| 20260506204555 | 79 | 22 | 0.0 | 8.7 | 0.00 | 0.01 | 0.01 | 79 | 1009.8 |
| 20260506204038 | 80 | 317 | 0.9 | 8.7 | 0.00 | 0.01 | 0.01 | 77 | 1009.8 |
| 20260506203538 | 81 | 0 | 0.0 | 7.8 | 0.00 | 0.01 | 0.01 | 77 | 1009.7 |
| 20260506203051 | 81 | 0 | 0.9 | 7.8 | 0.00 | 0.01 | 0.01 | 76 | 1009.9 |
| 20260506202541 | 81 | 0 | 0.9 | 7.8 | 0.00 | 0.01 | 0.01 | 76 | 1009.9 |
| 20260506202039 | 82 | 0 | 0.0 | 0.9 | 0.00 | 0.01 | 0.01 | 77 | 1010.0 |
| 20260506201548 | 80 | 0 | 0.0 | 0.9 | 0.00 | 0.01 | 0.01 | 78 | 1009.9 |
| 20260506201037 | 80 | 0 | 0.0 | 0.9 | 0.00 | 0.01 | 0.01 | 78 | 1009.9 |
| 20260506200539 | 80 | 0 | 0.0 | 0.0 | 0.00 | 0.01 | 0.01 | 76 | 1009.9 |
| 20260506200049 | 80 | 0 | 0.0 | 0.0 | 0.00 | 0.01 | 0.01 | 77 | 1010.0 |
| 20260506195538 | 79 | 0 | 0.0 | 0.0 | 0.00 | 0.01 | 0.01 | 80 | 1010.0 |
| 20260506195037 | 79 | 0 | 0.0 | 0.0 | 0.00 | 0.01 | 0.01 | 79 | 1010.0 |
| 20260506194544 | 78 | 0 | 0.0 | 2.6 | 0.00 | 0.01 | 0.01 | 77 | 1010.1 |
| 20260506194038 | 78 | 0 | 0.0 | 4.3 | 0.00 | 0.01 | 0.01 | 79 | 1010.1 |
| 20260506193538 | 79 | 0 | 0.9 | 4.3 | 0.00 | 0.01 | 0.01 | 78 | 1010.1 |
| 20260506193051 | 79 | 0 | 0.0 | 3.5 | 0.00 | 0.01 | 0.01 | 79 | 1010.1 |
| 20260506192537 | 78 | 0 | 0.0 | 4.3 | 0.00 | 0.01 | 0.01 | 79 | 1010.1 |
| 20260506192037 | 78 | 0 | 0.0 | 4.3 | 0.00 | 0.01 | 0.01 | 78 | 1010.3 |
| 20260506191553 | 78 | 0 | 0.0 | 3.5 | 0.00 | 0.01 | 0.01 | 79 | 1010.2 |
| 20260506191038 | 77 | 0 | 0.9 | 7.0 | 0.00 | 0.01 | 0.01 | 79 | 1010.3 |
| 20260506190538 | 76 | 0 | 0.0 | 7.0 | 0.00 | 0.01 | 0.01 | 81 | 1010.4 |
| 20260506190056 | 76 | 0 | 2.6 | 6.1 | 0.00 | 0.01 | 0.01 | 82 | 1010.2 |
| 20260506185537 | 75 | 0 | 0.0 | 0.0 | 0.00 | 0.01 | 0.01 | 81 | 1010.2 |
| 20260506185037 | 74 | 0 | 0.0 | 4.3 | 0.00 | 0.01 | 0.01 | 83 | 1010.3 |
| 20260506184553 | 73 | 0 | 0.0 | 7.8 | 0.00 | 0.01 | 0.01 | 81 | 1010.4 |
| 20260506184038 | 74 | 0 | 0.9 | 7.8 | 0.00 | 0.01 | 0.01 | 82 | 1010.5 |
| 20260506183536 | 73 | 0 | 0.0 | 6.1 | 0.00 | 0.01 | 0.01 | 84 | 1010.7 |
| 20260506183104 | 71 | 0 | 0.0 | 6.1 | 0.00 | 0.01 | 0.01 | 84 | 1011.0 |
| 20260506182538 | 71 | 0 | 0.0 | 5.2 | 0.01 | 0.01 | 0.01 | 85 | 1010.9 |
| 20260506182038 | 70 | 0 | 0.0 | 7.0 | 0.01 | 0.01 | 0.01 | 87 | 1010.9 |
| 20260506181555 | 69 | 0 | 0.0 | 8.7 | 0.01 | 0.01 | 0.01 | 88 | 1011.1 |
| 20260506181038 | 68 | 33 | 1.7 | 8.7 | 0.01 | 0.01 | 0.01 | 89 | 1011.3 |
| 20260506180540 | 68 | 22 | 1.7 | 8.7 | 0.01 | 0.01 | 0.01 | 89 | 1011.1 |
| 20260506180059 | 68 | 0 | 0.9 | 7.8 | 0.01 | 0.01 | 0.01 | 91 | 1011.1 |
| 20260506175538 | 67 | 37 | 1.7 | 9.6 | 0.01 | 0.01 | 0.01 | 91 | 1011.2 |
| 20260506175040 | 67 | 0 | 0.0 | 9.6 | 0.01 | 0.01 | 0.01 | 91 | 1011.3 |
| 20260506174548 | 66 | 0 | 0.9 | 9.6 | 0.01 | 0.01 | 0.01 | 92 | 1011.5 |
| 20260506174037 | 66 | 21 | 0.0 | 12.2 | 0.01 | 0.01 | 0.01 | 91 | 1011.6 |
| 20260506173537 | 66 | 16 | 0.9 | 12.2 | 0.01 | 0.01 | 0.01 | 90 | 1011.6 |
| 20260506173058 | 67 | 0 | 0.9 | 7.0 | 0.01 | 0.01 | 0.01 | 90 | 1011.8 |
| 20260506172538 | 67 | 0 | 0.0 | 7.8 | 0.00 | 0.00 | 0.00 | 90 | 1012.0 |
| 20260506172037 | 68 | 0 | 0.9 | 7.8 | 0.00 | 0.00 | 0.00 | 89 | 1011.8 |
| 20260506171550 | 69 | 0 | 1.7 | 12.2 | 0.00 | 0.00 | 0.00 | 88 | 1012.0 |
| 20260506171037 | 71 | 350 | 1.7 | 12.2 | 0.00 | 0.00 | 0.00 | 87 | 1012.2 |
| 20260506170538 | 73 | 0 | 0.9 | 11.3 | 0.00 | 0.00 | 0.00 | 86 | 1012.0 |
| 20260506170054 | 74 | 5 | 1.7 | 12.2 | 0.00 | 0.00 | 0.00 | 85 | 1012.0 |
| 20260506165538 | 77 | 312 | 0.9 | 12.2 | 0.00 | 0.00 | 0.00 | 86 | 1011.9 |
| 20260506165038 | 78 | 0 | 0.0 | 0.0 | 0.00 | 0.00 | 0.00 | 89 | 1011.9 |
| 20260506164558 | 78 | 0 | 0.0 | 0.0 | 0.00 | 0.00 | 0.00 | 88 | 1011.9 |
| 20260506164037 | 78 | 0 | 0.0 | 0.0 | 0.00 | 0.00 | 0.00 | 89 | 1011.9 |
| 20260506163537 | 78 | 0 | 0.0 | 0.0 | 0.00 | 0.00 | 0.00 | 89 | 1011.9 |
| 20260506163113 | 78 | 0 | 0.0 | 0.0 | 0.00 | 0.00 | 0.00 | 88 | 1011.7 |
| 20260506162541 | 78 | 0 | 0.0 | 0.0 | 0.00 | 0.00 | 0.00 | 88 | 1011.7 |
| 20260506162041 | 78 | 0 | 0.0 | 0.0 | 0.00 | 0.00 | 0.00 | 87 | 1011.7 |
| 20260506161547 | 79 | 0 | 0.0 | 0.0 | 0.00 | 0.00 | 0.00 | 87 | 1011.7 |
| 20260506161038 | 79 | 0 | 0.0 | 0.0 | 0.00 | 0.00 | 0.00 | 86 | 1011.6 |
| 20260506160537 | 80 | 0 | 0.0 | 0.0 | 0.00 | 0.00 | 0.00 | 86 | 1011.3 |
| 20260506160059 | 80 | 0 | 0.0 | 0.0 | 0.00 | 0.00 | 0.00 | 85 | 1011.2 |
| 20260506155538 | 80 | 0 | 0.0 | 0.0 | 0.00 | 0.00 | 0.00 | 85 | 1010.9 |
| 20260506155038 | 80 | 0 | 0.0 | 0.0 | 0.00 | 0.00 | 0.00 | 85 | 1010.8 |
| 20260506154554 | 80 | 0 | 0.0 | 0.0 | 0.00 | 0.00 | 0.00 | 87 | 1010.7 |
| 20260506154038 | 79 | 0 | 0.0 | 0.0 | 0.00 | 0.00 | 0.00 | 88 | 1010.7 |
| 20260506153541 | 78 | 0 | 0.0 | 0.0 | 0.00 | 0.00 | 0.00 | 88 | 1010.5 |
| 20260506153046 | 78 | 0 | 0.0 | 0.0 | 0.00 | 0.00 | 0.00 | 88 | 1010.7 |
| 20260506152537 | 78 | 0 | 0.0 | 0.0 | 0.00 | 0.00 | 0.00 | 88 | 1010.9 |
| 20260506152037 | 78 | 0 | 0.0 | 0.0 | 0.00 | 0.00 | 0.00 | 88 | 1010.9 |
| 20260506151545 | 78 | 0 | 0.0 | 0.0 | 0.00 | 0.00 | 0.00 | 88 | 1010.8 |
| 20260506151037 | 78 | 0 | 0.0 | 0.0 | 0.00 | 0.00 | 0.00 | 88 | 1010.6 |
| 20260506150539 | 78 | 0 | 0.0 | 0.0 | 0.00 | 0.00 | 0.00 | 89 | 1010.5 |
| 20260506150059 | 78 | 0 | 0.0 | 0.0 | 0.00 | 0.00 | 0.00 | 89 | 1010.7 |
| 20260506145537 | 78 | 0 | 0.0 | 0.0 | 0.00 | 0.00 | 0.00 | 89 | 1010.7 |
| 20260506145038 | 78 | 0 | 0.0 | 0.0 | 0.00 | 0.00 | 0.00 | 89 | 1010.9 |
| 20260506144550 | 78 | 0 | 0.0 | 0.0 | 0.00 | 0.00 | 0.00 | 89 | 1010.9 |
| 20260506144037 | 78 | 0 | 0.0 | 0.0 | 0.00 | 0.00 | 0.00 | 89 | 1010.8 |
| 20260506143538 | 78 | 0 | 0.0 | 0.0 | 0.00 | 0.00 | 0.00 | 89 | 1010.9 |
| 20260506143048 | 78 | 0 | 0.0 | 0.0 | 0.00 | 0.00 | 0.00 | 88 | 1010.7 |
| 20260506142537 | 78 | 0 | 0.0 | 0.0 | 0.00 | 0.00 | 0.00 | 89 | 1010.6 |
| 20260506142037 | 78 | 0 | 0.0 | 0.9 | 0.00 | 0.00 | 0.00 | 89 | 1010.3 |
| 20260506141548 | 77 | 0 | 0.0 | 0.9 | 0.00 | 0.00 | 0.00 | 89 | 1010.3 |
| 20260506141039 | 77 | 0 | 0.0 | 0.0 | 0.00 | 0.00 | 0.00 | 90 | 1010.1 |
| 20260506140538 | 77 | 0 | 0.0 | 0.0 | 0.00 | 0.00 | 0.00 | 90 | 1010.2 |
| 20260506140046 | 77 | 0 | 0.0 | 0.0 | 0.00 | 0.00 | 0.00 | 90 | 1010.1 |
| 20260506135537 | 77 | 0 | 0.0 | 0.0 | 0.00 | 0.00 | 0.00 | 91 | 1010.2 |
| 20260506135037 | 76 | 0 | 0.0 | 0.0 | 0.00 | 0.00 | 0.00 | 91 | 1010.0 |
| 20260506134546 | 76 | 0 | 0.0 | 0.0 | 0.00 | 0.00 | 0.00 | 92 | 1010.1 |
| 20260506134040 | 76 | 0 | 0.0 | 0.0 | 0.00 | 0.00 | 0.00 | 92 | 1010.0 |
| 20260506133537 | 76 | 0 | 0.0 | 0.0 | 0.00 | 0.00 | 0.00 | 92 | 1010.2 |
| 20260506133108 | 75 | 0 | 0.0 | 0.0 | 0.00 | 0.00 | 0.00 | 92 | 1010.1 |